DW0617 Weather Reports


Display with metric or nautical units.
time (UTC)temp
F
wind
direction
speed
MPH
gust
MPH
rain 1hr
in
rain 24hr
in
rain mn
in
humidity
%
barometer
mb
20260507180511 91 213 6.0 15.0 0.00 0.00 0.00 39 1042.7
20260507180013 92 260 5.0 15.0 0.00 0.00 0.00 36 1042.6
20260507175516 91 349 6.0 16.0 0.00 0.00 0.00 39 1042.8
20260507175011 91 252 4.0 16.0 0.00 0.00 0.00 40 1042.8
20260507174519 91 254 5.0 17.0 0.00 0.00 0.00 39 1042.9
20260507174017 91 264 7.0 14.0 0.00 0.00 0.00 37 1042.9
20260507173512 91 80 4.0 21.0 0.00 0.00 0.00 36 1042.8
20260507173016 91 219 6.0 21.0 0.00 0.00 0.00 37 1042.8
20260507172510 92 296 6.0 13.0 0.00 0.00 0.00 40 1042.7
20260507172012 92 275 6.0 13.0 0.00 0.00 0.00 35 1042.6
20260507171508 92 320 8.0 12.0 0.00 0.00 0.00 38 1042.7
20260507171008 92 321 3.0 17.0 0.00 0.00 0.00 41 1042.5
20260507170509 93 311 6.0 17.0 0.00 0.00 0.00 40 1042.4
20260507170006 92 207 5.0 11.0 0.00 0.00 0.00 40 1042.4
20260507165510 92 228 3.0 11.0 0.00 0.00 0.00 40 1042.4
20260507165104 92 251 4.0 11.0 0.00 0.00 0.00 39 1042.4
20260507164505 92 277 5.0 16.0 0.00 0.00 0.00 39 1042.4
20260507164002 92 302 9.0 16.0 0.00 0.00 0.00 38 1042.2
20260507163559 92 133 3.0 13.0 0.00 0.00 0.00 39 1042.2
20260507163100 91 297 3.0 16.0 0.00 0.00 0.00 42 1042.3
20260507162559 91 236 4.0 16.0 0.00 0.00 0.00 40 1042.3
20260507162101 91 299 6.0 16.0 0.00 0.00 0.00 39 1042.3
20260507161559 90 221 7.0 17.0 0.00 0.00 0.00 42 1042.4
20260507161059 91 258 5.0 17.0 0.00 0.00 0.00 43 1042.4
20260507160555 91 285 3.0 15.0 0.00 0.00 0.00 42 1042.3
20260507160114 91 259 5.0 15.0 0.00 0.00 0.00 45 1042.4
20260507155556 90 296 6.0 11.0 0.00 0.00 0.00 46 1042.4
20260507155055 89 312 5.0 16.0 0.00 0.00 0.00 47 1042.4
20260507154550 90 236 4.0 16.0 0.00 0.00 0.00 47 1042.5
20260507154050 89 214 5.0 12.0 0.00 0.00 0.00 48 1042.5
20260507153553 89 142 4.0 11.0 0.00 0.00 0.00 47 1042.6
20260507153048 89 211 6.0 11.0 0.00 0.00 0.00 48 1042.6
20260507152555 89 196 3.0 11.0 0.00 0.00 0.00 48 1042.6
20260507152048 89 152 2.0 8.0 0.00 0.00 0.00 50 1042.5
20260507151545 89 259 4.0 10.0 0.00 0.00 0.00 48 1042.5
20260507151043 88 248 1.0 10.0 0.00 0.00 0.00 47 1042.5
20260507150542 88 215 2.0 7.0 0.00 0.00 0.00 45 1042.6
20260507150041 88 223 1.0 9.0 0.00 0.00 0.00 49 1042.5
20260507145542 87 212 2.0 9.0 0.00 0.00 0.00 51 1042.6
20260507145037 87 277 3.0 9.0 0.00 0.00 0.00 46 1042.7
20260507144536 87 265 2.0 8.0 0.00 0.00 0.00 49 1042.6
20260507144036 87 196 2.0 7.0 0.00 0.00 0.00 47 1042.6
20260507143533 86 275 1.0 6.0 0.00 0.00 0.00 45 1042.6
20260507143032 86 147 3.0 6.0 0.00 0.00 0.00 51 1042.6
20260507142531 85 202 3.0 9.0 0.00 0.00 0.00 49 1042.8
20260507142033 85 140 4.0 9.0 0.00 0.00 0.00 53 1042.8
20260507141527 84 176 3.0 8.0 0.00 0.00 0.00 56 1042.9
20260507141026 84 182 1.0 6.0 0.00 0.00 0.00 60 1042.9
20260507140524 84 201 2.0 9.0 0.00 0.00 0.00 63 1042.9
20260507140036 83 217 4.0 9.0 0.00 0.00 0.00 63 1042.9
20260507135521 83 177 4.0 9.0 0.00 0.00 0.00 68 1042.9
20260507135023 82 167 2.0 9.0 0.00 0.00 0.00 67 1042.9
20260507134519 81 277 3.0 9.0 0.00 0.00 0.00 68 1043.0
20260507134017 81 172 2.0 6.0 0.00 0.00 0.00 70 1042.9
20260507133516 81 200 1.0 7.0 0.00 0.00 0.00 74 1043.0
20260507133014 80 191 3.0 8.0 0.00 0.00 0.00 72 1043.0
20260507132512 80 253 1.0 5.0 0.00 0.00 0.00 76 1042.9
20260507132011 80 214 2.0 5.0 0.00 0.00 0.00 77 1042.9
20260507131512 79 216 1.0 6.0 0.00 0.00 0.00 79 1042.9
20260507131009 78 176 1.0 6.0 0.00 0.00 0.00 79 1042.8
20260507130507 78 204 1.0 7.0 0.00 0.00 0.00 80 1042.9
20260507130006 77 235 2.0 6.0 0.00 0.00 0.00 82 1042.9
20260507125507 77 153 0.0 4.0 0.00 0.00 0.00 84 1042.9
20260507125003 76 234 0.0 3.0 0.00 0.00 0.00 85 1042.9
20260507124503 75 120 0.0 3.0 0.00 0.00 0.00 87 1042.8
20260507124100 74 61 0.0 3.0 0.00 0.00 0.00 87 1042.8
20260507123559 74 214 0.0 4.0 0.00 0.00 0.00 90 1042.8
20260507123104 73 153 1.0 4.0 0.00 0.00 0.00 94 1042.8
20260507122555 72 190 0.0 4.0 0.00 0.00 0.00 97 1042.8
20260507122057 72 130 0.0 4.0 0.00 0.00 0.00 100 1042.7
20260507121557 71 171 1.0 4.0 0.00 0.00 0.00 100 1042.6
20260507121053 71 161 0.0 3.0 0.00 0.00 0.00 100 1042.7
20260507120552 70 194 0.0 3.0 0.00 0.00 0.00 100 1042.6
20260507120052 70 236 1.0 3.0 0.00 0.00 0.00 100 1042.6
20260507115551 69 217 0.0 2.0 0.00 0.00 0.00 100 1042.7
20260507115049 69 141 0.0 2.0 0.00 0.00 0.00 100 1042.6
20260507114549 69 230 0.0 2.0 0.00 0.00 0.00 100 1042.5
20260507114051 68 179 0.0 0.0 0.00 0.00 0.00 100 1042.5
20260507113547 68 176 0.0 0.0 0.00 0.00 0.00 100 1042.5
20260507113106 68 203 0.0 0.0 0.00 0.00 0.00 100 1042.5
20260507112548 68 203 0.0 0.0 0.00 0.00 0.00 100 1042.4
20260507112045 68 203 0.0 0.0 0.00 0.00 0.00 100 1042.4
20260507111545 68 143 0.0 0.0 0.00 0.00 0.00 100 1042.4
20260507111044 68 143 0.0 0.0 0.00 0.00 0.00 100 1042.4
20260507110544 68 143 0.0 0.0 0.00 0.00 0.00 100 1042.3
20260507110044 68 194 0.0 0.0 0.00 0.00 0.00 100 1042.3
20260507105543 68 194 0.0 0.0 0.00 0.00 0.00 100 1042.3
20260507105043 68 194 0.0 0.0 0.00 0.00 0.00 100 1042.3
20260507104644 68 188 0.0 0.0 0.00 0.00 0.00 100 1042.3
20260507104043 68 188 0.0 0.0 0.00 0.00 0.00 100 1042.3
20260507103543 68 188 0.0 0.0 0.00 0.00 0.00 100 1042.3
20260507103042 68 188 0.0 0.0 0.00 0.00 0.00 100 1042.4
20260507102542 68 188 0.0 0.0 0.00 0.00 0.00 100 1042.3
20260507102042 68 188 0.0 0.0 0.00 0.00 0.00 100 1042.4
20260507101542 69 188 0.0 0.0 0.00 0.00 0.00 100 1042.2
20260507101041 69 190 0.0 0.0 0.00 0.00 0.00 100 1042.2
20260507100541 69 190 0.0 0.0 0.00 0.00 0.00 100 1042.2
20260507100052 69 190 0.0 0.0 0.00 0.00 0.00 100 1042.1
20260507095545 69 190 0.0 0.0 0.00 0.00 0.00 100 1041.9
20260507095043 69 190 0.0 0.0 0.00 0.00 0.00 100 1041.8
20260507094542 68 190 0.0 0.0 0.00 0.00 0.00 100 1041.9
20260507094043 68 190 0.0 0.0 0.00 0.00 0.00 100 1041.8
20260507093542 68 190 0.0 0.0 0.00 0.00 0.00 100 1041.9
20260507093042 68 190 0.0 0.0 0.00 0.00 0.00 100 1041.9
20260507092540 69 190 0.0 0.0 0.00 0.00 0.00 100 1041.9
20260507092041 68 190 0.0 0.0 0.00 0.00 0.00 100 1041.8
20260507091543 68 190 0.0 0.0 0.00 0.00 0.00 100 1041.8
20260507091041 68 190 0.0 0.0 0.00 0.00 0.00 100 1041.7
20260507090540 68 190 0.0 0.0 0.00 0.00 0.00 100 1041.6
20260507090041 68 190 0.0 0.0 0.00 0.00 0.00 100 1041.6
20260507085540 68 190 0.0 0.0 0.00 0.00 0.00 100 1041.6
20260507085039 68 190 0.0 0.0 0.00 0.00 0.00 100 1041.6
20260507084551 68 190 0.0 0.0 0.00 0.00 0.00 100 1041.6
20260507084038 68 190 0.0 0.0 0.00 0.00 0.00 100 1041.5
20260507083537 68 190 0.0 0.0 0.00 0.00 0.00 100 1041.4
20260507083037 68 190 0.0 0.0 0.00 0.00 0.00 100 1041.3
20260507082537 68 190 0.0 0.0 0.00 0.00 0.00 100 1041.4
20260507082035 69 190 0.0 0.0 0.00 0.00 0.00 100 1041.6
20260507081535 69 190 0.0 0.0 0.00 0.00 0.00 100 1041.7
20260507081035 69 190 0.0 0.0 0.00 0.00 0.00 100 1041.7
20260507080536 69 190 0.0 0.0 0.00 0.00 0.00 100 1041.8
20260507080034 69 190 0.0 0.0 0.00 0.00 0.00 100 1041.9
20260507075538 69 190 0.0 0.0 0.00 0.00 0.00 100 1041.9
20260507075034 69 190 0.0 0.0 0.00 0.00 0.00 100 1042.0
20260507074535 69 190 0.0 0.0 0.00 0.00 0.00 100 1042.1
20260507074035 69 190 0.0 0.0 0.00 0.00 0.00 100 1042.1
20260507073533 69 190 0.0 0.0 0.00 0.00 0.00 100 1042.0
20260507073033 69 190 0.0 0.0 0.00 0.00 0.00 100 1041.9
20260507072533 69 190 0.0 0.0 0.00 0.00 0.00 100 1041.9
20260507072033 69 190 0.0 0.0 0.00 0.00 0.00 100 1041.8
20260507071537 69 190 0.0 0.0 0.00 0.00 0.00 100 1041.7
20260507071033 69 190 0.0 0.0 0.00 0.00 0.00 100 1041.7
20260507070532 69 190 0.0 0.0 0.00 0.00 0.00 100 1041.7
20260507070032 69 190 0.0 0.0 0.00 0.00 0.00 100 1041.8
20260507065530 69 190 0.0 0.0 0.00 0.00 0.00 100 1041.9
20260507065029 69 190 0.0 0.0 0.00 0.00 0.00 100 1042.0
20260507064530 69 190 0.0 0.0 0.00 0.00 0.00 100 1042.2
20260507064030 69 190 0.0 0.0 0.00 0.00 0.00 100 1042.3
20260507063528 70 190 0.0 0.0 0.00 0.00 0.00 100 1042.3
20260507063028 70 190 0.0 0.0 0.00 0.00 0.00 100 1042.4
20260507062527 70 219 0.0 0.0 0.00 0.00 0.00 100 1042.4
20260507062025 70 225 0.0 0.0 0.00 0.00 0.00 100 1042.7
20260507061533 70 225 0.0 0.0 0.00 0.00 0.00 100 1042.8
20260507061023 70 225 0.0 0.0 0.00 0.00 0.00 100 1042.9
20260507060523 69 225 0.0 0.0 0.00 0.00 0.00 100 1043.0
20260507060036 69 225 0.0 0.0 0.00 0.00 0.00 100 1043.1
20260507055522 69 225 0.0 0.0 0.00 0.00 0.00 100 1043.2
20260507055020 70 225 0.0 0.0 0.00 0.00 0.00 100 1043.3
20260507054533 70 225 0.0 0.0 0.00 0.00 0.00 100 1043.3
20260507054022 70 225 0.0 0.0 0.00 0.00 0.00 100 1043.3
20260507053519 70 225 0.0 0.0 0.00 0.00 0.00 100 1043.4
20260507053020 70 225 0.0 0.0 0.00 0.00 0.00 100 1043.3
20260507052524 70 225 0.0 0.0 0.00 0.00 0.00 100 1043.5
20260507052019 70 225 0.0 0.0 0.00 0.00 0.00 100 1043.5
20260507051518 71 225 0.0 0.0 0.00 0.00 0.00 100 1043.5
20260507051023 71 225 0.0 0.0 0.00 0.00 0.00 100 1043.3
20260507050519 71 225 0.0 0.0 0.00 0.00 0.00 100 1043.5
20260507050039 71 225 0.0 0.0 0.00 0.00 0.00 100 1043.5
20260507045517 71 173 0.0 0.0 0.00 0.00 0.00 100 1043.3
20260507045017 71 173 0.0 0.0 0.00 0.00 0.00 100 1043.4
20260507044522 71 286 0.0 0.0 0.00 0.00 0.00 100 1043.5
20260507044015 71 286 0.0 0.0 0.00 0.00 0.00 100 1043.4
20260507043513 72 286 0.0 0.0 0.00 0.00 0.00 99 1043.4
20260507043012 72 286 0.0 0.0 0.00 0.00 0.00 99 1043.6
20260507042511 72 254 0.0 0.0 0.00 0.00 0.00 99 1043.6
20260507042010 72 142 0.0 0.0 0.00 0.00 0.00 99 1043.5
20260507041508 72 134 0.0 0.0 0.00 0.00 0.00 98 1043.9
20260507041006 72 196 0.0 0.0 0.00 0.00 0.00 98 1043.9
20260507040505 72 184 0.0 1.0 0.00 0.00 0.00 98 1043.8
20260507040006 72 180 0.0 4.0 0.00 0.00 0.00 97 1044.0
20260507035503 72 166 2.0 4.0 0.00 0.00 0.00 97 1044.0
20260507035003 72 126 0.0 0.0 0.00 0.00 0.00 96 1043.8
20260507034505 72 209 0.0 0.0 0.00 0.00 0.00 95 1043.5
20260507034005 73 209 0.0 0.0 0.00 0.00 0.00 94 1043.5
20260507033502 73 209 0.0 0.0 0.00 0.00 0.00 95 1043.2
20260507033003 73 209 0.0 0.0 0.00 0.00 0.00 95 1043.3
20260507032503 73 209 0.0 0.0 0.00 0.00 0.00 94 1043.2
20260507032002 73 209 0.0 0.0 0.00 0.00 0.00 94 1043.3
20260507031505 73 286 0.0 2.0 0.00 0.00 0.00 93 1043.3
20260507031003 73 286 0.0 2.0 0.00 0.00 0.00 94 1043.2
20260507030503 73 267 0.0 1.0 0.00 0.00 0.00 93 1043.3
20260507030005 73 267 0.0 2.0 0.00 0.00 0.00 92 1043.2
20260507025501 74 244 0.0 2.0 0.00 0.00 0.00 91 1043.1
20260507025005 74 276 0.0 0.0 0.00 0.00 0.00 91 1043.2
20260507024502 74 298 0.0 0.0 0.00 0.00 0.00 91 1043.3
20260507024002 74 305 0.0 0.0 0.00 0.00 0.00 91 1043.5
20260507023500 74 294 0.0 0.0 0.00 0.00 0.00 90 1043.5
20260507023002 74 294 0.0 1.0 0.00 0.00 0.00 89 1043.5
20260507022503 74 290 0.0 2.0 0.00 0.00 0.00 88 1043.4
20260507022101 74 273 0.0 2.0 0.00 0.00 0.00 87 1043.4
20260507022002 75 273 0.0 2.0 0.00 0.00 0.00 87 1043.4
20260507021616 75 295 0.0 2.0 0.00 0.00 0.00 86 1043.3
20260507021100 75 292 0.0 1.0 0.00 0.00 0.00 86 1043.2
20260507020600 75 309 0.0 1.0 0.00 0.00 0.00 85 1043.1
20260507020100 76 304 0.0 1.0 0.00 0.00 0.00 84 1043.2
20260507015600 76 273 0.0 1.0 0.00 0.00 0.00 84 1043.2
20260507015100 76 274 0.0 2.0 0.00 0.00 0.00 83 1043.2
20260507014601 76 299 0.0 3.0 0.00 0.00 0.00 82 1043.3
20260507014101 76 273 1.0 7.0 0.00 0.00 0.00 81 1043.3
20260507013600 77 277 0.0 7.0 0.00 0.00 0.00 80 1043.4
20260507013059 77 271 1.0 5.0 0.00 0.00 0.00 80 1043.4
20260507012603 77 273 3.0 5.0 0.00 0.00 0.00 79 1043.3
20260507012100 77 286 0.0 4.0 0.00 0.00 0.00 79 1043.2
20260507011603 77 278 2.0 4.0 0.00 0.00 0.00 78 1043.1
20260507011058 77 265 1.0 3.0 0.00 0.00 0.00 77 1043.1
20260507010558 78 286 0.0 3.0 0.00 0.00 0.00 76 1043.0
20260507005558 78 238 0.0 2.0 0.00 0.00 0.00 75 1042.8
20260507005057 78 282 0.0 6.0 0.00 0.00 0.00 74 1042.9
20260507004558 79 318 2.0 7.0 0.00 0.00 0.00 73 1042.8
20260507004057 79 297 1.0 7.0 0.00 0.00 0.00 73 1042.9
20260507003556 79 304 0.0 5.0 0.00 0.00 0.00 72 1042.8
20260507003056 79 257 3.0 5.0 0.00 0.00 0.00 72 1042.8
20260507002556 79 250 2.0 8.0 0.00 0.00 0.00 72 1042.7
20260507002056 79 290 2.0 8.0 0.00 0.00 0.00 71 1042.7
20260507001604 79 284 4.0 8.0 0.00 0.00 0.00 72 1042.6
20260507001055 80 296 3.0 8.0 0.00 0.00 0.00 73 1042.5
20260507000556 80 261 4.0 8.0 0.00 0.00 0.00 73 1042.4
20260507000058 80 299 2.0 8.0 0.00 0.00 0.00 73 1042.4
20260506235557 81 295 2.0 8.0 0.00 0.00 0.00 73 1042.4
20260506235056 81 257 4.0 10.0 0.00 0.00 0.00 72 1042.4
20260506234621 81 245 5.0 11.0 0.00 0.00 0.00 71 1042.4
20260506234055 82 283 3.0 10.0 0.00 0.00 0.00 70 1042.4
20260506233554 82 231 3.0 9.0 0.00 0.00 0.00 69 1042.3
20260506233055 82 240 4.0 8.0 0.00 0.00 0.00 69 1042.4
20260506232558 83 319 2.0 11.0 0.00 0.00 0.00 68 1042.3
20260506232054 83 264 5.0 11.0 0.00 0.00 0.00 67 1042.3
20260506231555 84 274 3.0 8.0 0.00 0.00 0.00 67 1042.3
20260506231059 84 256 2.0 10.0 0.00 0.00 0.00 67 1042.4
20260506230558 84 247 5.0 10.0 0.00 0.00 0.00 66 1042.4
20260506230057 84 292 6.0 12.0 0.00 0.00 0.00 65 1042.4
20260506225557 84 257 6.0 12.0 0.00 0.00 0.00 64 1042.3
20260506225054 85 292 4.0 10.0 0.00 0.00 0.00 65 1042.4
20260506224553 85 271 6.0 11.0 0.00 0.00 0.00 64 1042.3
20260506224052 85 290 5.0 11.0 0.00 0.00 0.00 64 1042.3
20260506223555 86 302 4.0 11.0 0.00 0.00 0.00 61 1042.2
20260506223058 85 246 3.0 10.0 0.00 0.00 0.00 61 1042.2
20260506222551 86 308 5.0 11.0 0.00 0.00 0.00 60 1042.2
20260506222051 87 281 7.0 11.0 0.00 0.00 0.00 59 1042.2
20260506221554 87 271 6.0 11.0 0.00 0.00 0.00 59 1042.2
20260506221052 87 292 5.0 13.0 0.00 0.00 0.00 55 1042.2
20260506220551 87 250 5.0 13.0 0.00 0.00 0.00 59 1042.2
20260506220051 87 266 7.0 13.0 0.00 0.00 0.00 58 1042.2
20260506215550 87 262 4.0 16.0 0.00 0.00 0.00 56 1042.2
20260506215051 88 210 8.0 16.0 0.00 0.00 0.00 55 1042.4
20260506214550 88 302 5.0 13.0 0.00 0.00 0.00 54 1042.2
20260506214050 88 253 5.0 13.0 0.00 0.00 0.00 52 1042.3
20260506213549 88 288 7.0 13.0 0.00 0.00 0.00 50 1042.4
20260506213049 89 293 7.0 15.0 0.00 0.00 0.00 51 1042.3
20260506212549 89 227 7.0 15.0 0.00 0.00 0.00 46 1042.4
20260506212049 89 219 6.0 13.0 0.00 0.00 0.00 49 1042.3
20260506211549 90 294 5.0 17.0 0.00 0.00 0.00 51 1042.2
20260506211048 90 298 7.0 17.0 0.00 0.00 0.00 47 1042.2
20260506210548 90 301 6.0 14.0 0.00 0.00 0.00 46 1042.1
20260506210048 92 264 6.0 15.0 0.00 0.00 0.00 44 1042.1
20260506205547 92 257 5.0 11.0 0.00 0.00 0.00 46 1042.2
20260506205047 91 56 4.0 11.0 0.00 0.00 0.00 47 1042.1
20260506204555 92 325 3.0 10.0 0.00 0.00 0.00 46 1042.1
20260506204046 94 234 4.0 10.0 0.00 0.00 0.00 44 1042.0
20260506203546 92 251 3.0 9.0 0.00 0.00 0.00 43 1042.0
20260506203046 92 274 3.0 9.0 0.00 0.00 0.00 40 1041.9
20260506202548 91 310 1.0 5.0 0.00 0.00 0.00 41 1042.0
20260506202045 91 288 2.0 6.0 0.00 0.00 0.00 43 1042.0
20260506201545 92 298 3.0 6.0 0.00 0.00 0.00 41 1042.1
20260506201046 92 128 0.0 8.0 0.00 0.00 0.00 43 1042.1
20260506200547 93 284 3.0 8.0 0.00 0.00 0.00 39 1042.1
20260506195541 93 135 2.0 5.0 0.00 0.00 0.00 40 1042.2
20260506195042 92 103 0.0 7.0 0.00 0.00 0.00 43 1042.3
20260506194548 92 263 3.0 7.0 0.00 0.00 0.00 41 1042.2
20260506194040 91 95 1.0 6.0 0.00 0.00 0.00 44 1042.3
20260506193543 91 159 1.0 6.0 0.00 0.00 0.00 44 1042.3
20260506193038 91 263 1.0 4.0 0.00 0.00 0.00 43 1042.5
20260506192538 91 57 1.0 4.0 0.00 0.00 0.00 44 1042.4
20260506192041 92 63 1.0 8.0 0.00 0.00 0.00 44 1042.6
20260506191537 92 267 3.0 10.0 0.00 0.00 0.00 48 1042.8
20260506191036 92 246 6.0 10.0 0.00 0.00 0.00 43 1042.8
20260506190536 91 153 2.0 9.0 0.00 0.00 0.00 44 1042.8
20260506190035 92 247 3.0 9.0 0.00 0.00 0.00 46 1042.9
20260506185534 92 281 6.0 10.0 0.00 0.00 0.00 44 1042.9
20260506185036 91 37 1.0 10.0 0.00 0.00 0.00 43 1043.0
20260506184534 91 97 4.0 10.0 0.00 0.00 0.00 44 1043.1
20260506184033 91 103 2.0 7.0 0.00 0.00 0.00 47 1043.1
20260506183532 91 196 2.0 8.0 0.00 0.00 0.00 47 1043.2
20260506183032 91 266 3.0 11.0 0.00 0.00 0.00 48 1043.2
20260506182531 91 271 3.0 11.0 0.00 0.00 0.00 46 1043.4
20260506182031 91 297 3.0 9.0 0.00 0.00 0.00 47 1043.3
20260506181533 91 325 2.0 8.0 0.00 0.00 0.00 47 1043.4
20260506181031 91 128 3.0 9.0 0.00 0.00 0.00 45 1043.5
20260506180532 91 99 2.0 9.0 0.00 0.00 0.00 46 1043.5